Temp
18 18 18 18 18 18 18 19 19 19 19 19 19 19 19 19 19 20 20 21 21 21 21 21 22 23 23 25 25 26 29 30 31 31 32 28 28 26 25 24 23 23 25 21 17
18 18 18 18 18 18 18 19 18 19 19 19 19 19 19 19 20 19 20 21 22 21 21 22 23 23 25 26 26 27 29 31 33 32 32 29 29 25 26 25 23 22 20 18 18
18 18 18 18 18 18 18 18 18 19 19 19 19 19 19 19 19 23 21 22 22 22 21 22 23 24 26 27 27 27 29 31 31 30 29 30 28 26 26 27 25 21 18 19 19
18 18 18 18 18 18 18 18 18 19 19 19 19 19 19 19 25 21 22 22 22 21 21 22 23 24 27 27 27 27 28 30 30 27 28 29 28 26 26 25 24 20 18 19 19
18 18 18 18 18 18 18 18 18 19 19 19 19 19 18 18 22 22 22 23 22 21 22 23 24 25 27 28 27 27 29 28 28 26 26 27 27 27 23 22 20 18 18 19 19
18 18 18 19 18 18 18 18 19 19 18 18 18 18 18 21 21 21 22 22 21 21 22 23 25 25 26 26 27 28 28 27 26 27 25 26 25 24 21 20 19 17 16 16 18
18 18 18 18 18 18 19 19 18 18 18 18 18 18 16 21 20 21 21 21 20 21 22 22 23 24 25 26 25 26 27 26 26 26 26 25 24 24 20 20 19 17 14 13 14
18 18 18 18 18 18 19 19 19 18 18 18 18 18 20 21 21 21 21 20 21 20 21 21 22 24 25 25 26 26 27 27 28 25 25 25 28 26 20 20 20 18 14 13 14
18 18 18 18 19 19 19 19 19 18 18 18 17 17 23 21 21 21 21 22 21 20 20 21 22 25 25 27 27 27 27 27 27 26 26 25 29 23 20 21 21 19 15 13 12
18 18 19 19 19 19 19 19 19 18 18 18 17 17 21 23 21 21 21 21 22 21 22 23 24 26 27 27 27 27 27 28 28 27 26 26 28 24 21 21 21 20 18 14 13
18 18 19 19 19 19 19 19 18 17 16 21 21 20 21 21 21 22 21 22 23 23 25 24 26 25 27 27 28 27 27 27 28 29 26 27 27 26 22 21 22 20 19 17 16
18 18 19 19 19 19 19 19 18 18 20 20 19 19 19 19 22 22 22 23 24 25 25 25 25 27 27 26 26 26 26 27 28 28 26 27 27 29 24 22 23 21 19 18 16
18 18 19 19 19 19 18 18 19 17 20 23 21 21 21 20 23 24 22 24 25 25 25 25 27 26 25 25 25 26 26 26 26 27 26 26 27 28 28 23 22 21 20 19 17
18 19 19 19 19 19 18 19 19 19 24 25 24 22 22 22 24 23 23 24 25 25 26 26 27 25 25 25 26 25 27 26 26 26 25 27 25 28 28 26 24 23 21 20 18
19 19 19 19 19 19 19 19 19 18 23 25 25 22 22 24 24 24 23 24 25 26 25 26 26 25 25 26 27 25 27 26 26 26 26 26 25 27 29 28 27 24 23 21 19
19 19 19 19 19 19 19 19 18 23 21 24 24 24 25 24 24 25 24 23 24 25 26 26 26 26 26 27 26 27 26 25 25 26 24 26 26 26 28 27 28 28 26 23 20
19 19 19 19 18 19 20 18 24 22 24 22 22 24 24 23 24 24 24 23 23 23 25 26 26 27 26 25 27 26 25 24 24 24 24 27 26 26 28 29 28 28 25 24 20
19 19 19 19 19 20 20 24 20 20 21 22 22 23 22 22 23 23 23 23 22 22 23 23 23 24 25 25 24 25 25 24 23 24 26 28 26 27 26 22 21 21 21 21 18
19 20 18 19 20 20 22 22 19 19 20 20 22 22 22 22 22 22 22 20 20 20 19 21 22 25 25 25 25 24 23 26 23 25 25 26 27 23 22 21 20 20 21 18 16
20 19 19 20 20 20 23 18 19 19 19 21 19 20 20 20 20 21 21 19 19 19 20 20 18 22 23 24 24 23 25 22 24 21 22 25 25 26 23 21 19 18 18 16 15
20 21 19 20 20 21 21 19 19 18 18 19 19 19 19 19 19 20 20 18 18 18 19 19 18 20 21 22 23 23 21 22 23 22 22 22 24 22 21 20 19 17 16 15 14
19 22 18 19 21 20 20 19 16 18 17 18 18 18 17 18 18 18 18 18 17 17 17 18 16 17 18 21 22 22 22 22 21 21 22 23 22 19 18 18 18 16 15 14 13
20 19 18 19 21 20 18 18 16 17 16 16 16 16 17 17 16 17 17 17 16 16 16 17 17 16 18 20 17 16 11 15 18 19 18 19 20 17 16 17 16 15 14 13 12
19 21 18 17 16 18 18 17 17 15 15 15 16 16 16 16 17 16 16 17 15 15 12 14 15 15 15 16 17 15 13 13 13 14 17 20 20 16 16 17 16 15 13 13 12
18 16 15 18 17 16 17 16 16 15 15 14 16 16 15 15 16 16 16 16 15 13 14 14 14 16 16 17 17 16 15 14 10 9 11 15 14 13 15 16 17 14 13 12 11
18 17 15 14 14 16 14 15 15 15 15 15 15 15 15 14 15 14 14 15 14 14 15 14 13 15 15 17 17 16 16 14 12 11 11 12 13 14 14 15 16 14 12 11 9
14 15 17 13 15 17 15 15 14 14 14 14 14 15 15 14 12 12 12 12 13 13 13 13 12 13 14 14 13 14 8 11 11 10 10 11 9 11 13 14 14 13 12 11 8
Height
1538 1536 1535 1533 1531 1530 1528 1527 1525 1524 1522 1521 1519 1518 1517 1515 1513 1511 1511 1512 1511 1512 1514 1516 1518 1519 1521 1522 1522 1521 1514 1507 1499 1502 1498 1512 1513 1520 1524 1529 1531 1532 1531 1537 1542
1537 1535 1533 1531 1529 1527 1526 1525 1523 1522 1520 1518 1517 1516 1514 1513 1510 1508 1508 1507 1508 1509 1512 1515 1517 1518 1518 1518 1518 1516 1509 1501 1494 1497 1498 1508 1510 1520 1523 1527 1531 1533 1536 1539 1544
1534 1533 1530 1528 1526 1525 1524 1522 1521 1520 1518 1517 1516 1515 1513 1512 1509 1506 1505 1506 1506 1508 1511 1514 1516 1516 1514 1513 1513 1511 1505 1498 1498 1505 1507 1505 1510 1517 1518 1521 1526 1533 1536 1540 1545
1533 1530 1528 1526 1525 1524 1522 1520 1519 1518 1517 1515 1514 1513 1512 1512 1505 1505 1505 1505 1505 1506 1510 1512 1514 1514 1510 1508 1507 1508 1506 1502 1502 1508 1509 1506 1510 1515 1518 1521 1525 1532 1537 1541 1544
1530 1528 1527 1525 1523 1521 1520 1518 1518 1516 1515 1513 1512 1512 1511 1512 1508 1504 1504 1504 1503 1506 1510 1511 1511 1510 1506 1504 1506 1507 1500 1504 1507 1509 1510 1510 1511 1515 1524 1525 1528 1534 1538 1541 1545
1529 1527 1525 1523 1521 1519 1518 1517 1516 1515 1513 1511 1510 1510 1510 1510 1504 1503 1503 1503 1504 1507 1509 1510 1509 1509 1505 1505 1504 1501 1502 1505 1507 1506 1510 1511 1516 1518 1525 1527 1530 1534 1538 1541 1544
1528 1525 1523 1521 1520 1519 1518 1516 1514 1513 1511 1510 1509 1509 1509 1507 1503 1503 1503 1504 1506 1509 1509 1510 1509 1509 1506 1505 1506 1505 1504 1506 1506 1507 1507 1511 1517 1515 1520 1525 1530 1534 1537 1539 1543
1526 1524 1522 1521 1519 1518 1517 1515 1513 1511 1509 1509 1508 1508 1507 1502 1502 1502 1503 1505 1505 1507 1508 1509 1510 1508 1504 1504 1503 1502 1500 1499 1496 1505 1507 1510 1498 1507 1519 1522 1527 1532 1536 1537 1539
1524 1523 1521 1519 1518 1517 1515 1513 1511 1509 1508 1507 1508 1507 1504 1503 1503 1501 1502 1505 1506 1507 1507 1507 1509 1506 1506 1499 1498 1495 1495 1494 1492 1498 1500 1505 1493 1503 1515 1520 1524 1529 1534 1536 1538
1522 1521 1520 1518 1517 1516 1514 1512 1509 1507 1506 1506 1506 1509 1504 1502 1502 1501 1501 1504 1506 1507 1508 1508 1506 1502 1497 1493 1497 1490 1495 1487 1490 1490 1498 1497 1489 1504 1512 1516 1519 1524 1529 1533 1536
1520 1520 1518 1517 1516 1516 1514 1511 1512 1511 1505 1504 1504 1503 1502 1502 1500 1501 1502 1504 1505 1505 1499 1503 1500 1498 1491 1491 1486 1490 1488 1488 1482 1482 1494 1491 1489 1493 1508 1513 1515 1519 1524 1528 1532
1519 1518 1517 1516 1516 1515 1514 1515 1514 1514 1507 1503 1501 1500 1499 1501 1501 1500 1501 1503 1502 1497 1499 1501 1497 1486 1490 1492 1495 1494 1494 1491 1486 1485 1493 1487 1486 1484 1498 1505 1507 1513 1518 1523 1528
1517 1516 1516 1515 1515 1515 1515 1514 1511 1509 1508 1501 1500 1500 1500 1501 1499 1498 1501 1499 1497 1495 1495 1493 1484 1489 1495 1494 1496 1492 1493 1490 1489 1486 1490 1489 1485 1480 1482 1498 1503 1506 1511 1517 1520
1516 1515 1515 1515 1518 1515 1515 1512 1510 1508 1496 1501 1499 1502 1502 1500 1498 1498 1498 1499 1495 1492 1489 1489 1484 1490 1491 1491 1490 1491 1483 1488 1487 1489 1493 1480 1492 1471 1473 1484 1494 1498 1503 1507 1513
1515 1515 1515 1515 1515 1516 1515 1511 1508 1508 1508 1502 1501 1502 1501 1499 1498 1496 1497 1497 1492 1489 1493 1483 1485 1487 1488 1483 1480 1485 1478 1479 1481 1482 1484 1477 1486 1471 1461 1466 1474 1485 1490 1496 1504
1515 1515 1515 1515 1515 1515 1512 1509 1508 1505 1524 1506 1504 1503 1499 1500 1499 1496 1495 1497 1494 1489 1487 1483 1480 1484 1479 1476 1478 1477 1480 1481 1480 1479 1486 1475 1475 1470 1462 1463 1467 1470 1476 1487 1497
1517 1516 1516 1516 1517 1513 1510 1510 1502 1513 1509 1515 1511 1505 1504 1503 1500 1498 1495 1496 1496 1497 1484 1476 1475 1474 1480 1480 1472 1476 1480 1488 1487 1481 1479 1460 1464 1458 1453 1452 1459 1462 1467 1477 1492
1519 1519 1518 1516 1514 1511 1510 1506 1521 1523 1520 1517 1513 1507 1511 1509 1504 1503 1500 1497 1503 1500 1492 1488 1489 1481 1481 1480 1479 1473 1472 1477 1486 1473 1456 1439 1452 1450 1450 1463 1469 1472 1475 1477 1490
1522 1521 1520 1517 1514 1512 1511 1514 1530 1531 1527 1524 1512 1512 1509 1511 1511 1507 1504 1511 1512 1511 1513 1503 1493 1477 1480 1480 1479 1472 1477 1463 1470 1461 1461 1447 1437 1452 1457 1464 1471 1471 1473 1482 1491
1525 1523 1522 1519 1516 1515 1513 1529 1531 1533 1530 1523 1524 1520 1520 1516 1518 1512 1507 1518 1517 1517 1512 1505 1508 1489 1481 1480 1476 1475 1467 1478 1464 1483 1475 1447 1444 1437 1453 1460 1470 1475 1479 1486 1495
1526 1524 1525 1521 1520 1519 1519 1528 1532 1535 1533 1530 1528 1526 1523 1523 1522 1516 1512 1522 1523 1519 1516 1511 1507 1496 1487 1480 1474 1471 1480 1468 1464 1463 1465 1462 1447 1451 1461 1466 1469 1476 1482 1488 1495
1527 1524 1527 1524 1524 1525 1527 1533 1537 1536 1536 1534 1532 1530 1530 1527 1524 1520 1522 1522 1526 1525 1519 1515 1513 1505 1495 1485 1479 1473 1471 1467 1468 1467 1455 1450 1451 1466 1472 1474 1475 1478 1481 1489 1495
1529 1531 1530 1526 1523 1529 1536 1537 1540 1539 1540 1538 1537 1537 1535 1531 1531 1525 1526 1527 1527 1527 1523 1519 1507 1504 1489 1482 1487 1490 1507 1496 1478 1468 1468 1468 1460 1471 1475 1475 1480 1482 1484 1491 1495
1531 1527 1534 1533 1536 1533 1534 1539 1539 1543 1543 1542 1540 1538 1536 1531 1529 1529 1527 1527 1528 1527 1529 1525 1513 1511 1507 1499 1495 1496 1502 1506 1503 1492 1472 1460 1454 1469 1474 1474 1480 1483 1487 1492 1498
1531 1537 1538 1535 1538 1540 1539 1541 1539 1542 1543 1543 1539 1539 1538 1535 1530 1526 1527 1526 1525 1527 1524 1521 1515 1504 1496 1492 1489 1485 1487 1496 1510 1516 1504 1476 1482 1485 1479 1478 1475 1483 1488 1493 1501
1534 1537 1542 1544 1545 1541 1544 1543 1543 1543 1544 1541 1542 1540 1538 1537 1535 1532 1531 1527 1525 1525 1521 1521 1514 1506 1499 1485 1478 1480 1481 1489 1502 1503 1503 1490 1489 1489 1485 1480 1476 1484 1491 1497 1505
1536 1538 1539 1545 1544 1540 1544 1546 1545 1545 1545 1544 1544 1540 1535 1537 1537 1535 1533 1531 1530 1528 1525 1521 1518 1511 1497 1492 1490 1482 1511 1502 1503 1506 1503 1497 1502 1494 1490 1490 1487 1486 1492 1498 1507
Wind_Speed
13 13 13 13 13 12 11 11 11 11 11 10 11 12 13 13 13 14 13 9 6 14 10 10 8 10 12 15 13 10 10 13 13 10 7 13 12 9 6 13 7 4 10 21 25
12 12 12 12 11 11 11 11 10 11 10 10 11 12 12 13 14 15 12 10 11 12 18 13 11 11 15 16 13 14 13 18 11 6 3 14 14 15 12 15 11 16 20 25 24
12 12 12 11 11 11 10 10 10 10 10 10 11 12 11 12 10 3 6 3 6 14 12 16 10 12 15 15 18 19 17 16 9 8 6 8 12 13 12 13 14 19 24 24 23
12 13 12 11 11 10 9 9 9 10 10 10 10 11 10 9 2 4 4 5 6 12 10 17 15 14 14 14 19 14 19 14 12 8 9 10 11 10 13 5 10 19 23 23 22
13 12 11 10 10 9 9 9 9 9 10 9 9 10 9 6 7 6 5 3 7 14 13 15 15 15 13 14 11 16 12 17 13 12 10 7 12 8 8 11 18 21 21 22 20
12 12 11 10 9 9 9 9 9 10 9 7 7 8 6 8 6 1 4 4 5 13 13 11 9 10 9 10 14 10 15 10 10 11 6 13 7 13 10 15 18 19 21 20 19
12 12 11 10 9 8 8 8 9 9 7 7 7 9 9 9 4 5 5 6 10 8 9 10 6 11 6 7 7 6 13 9 11 10 6 13 11 13 17 17 18 17 18 18 18
11 11 11 9 8 7 8 8 8 7 7 7 7 8 6 5 1 4 6 5 7 7 4 7 8 6 9 5 9 13 14 14 15 11 6 12 18 14 18 19 18 18 17 17 21
10 10 10 8 7 7 8 8 8 9 10 9 7 2 2 3 5 1 9 5 7 6 5 5 9 7 8 13 10 11 13 19 13 15 8 15 18 20 19 18 19 19 19 18 18
9 9 8 6 6 7 7 8 9 8 4 6 3 3 4 3 5 0 9 11 8 10 8 7 10 10 11 11 12 12 16 9 17 12 13 16 18 12 16 18 19 21 21 20 20
8 7 6 4 4 6 7 6 6 1 7 5 8 10 9 8 2 4 9 11 9 9 9 11 10 13 15 14 12 7 12 14 11 11 15 19 19 14 13 17 20 22 22 23 22
6 6 5 2 3 5 7 3 5 5 8 4 6 6 8 8 3 7 10 13 11 11 5 8 14 8 5 7 10 12 13 15 11 8 12 17 23 22 18 20 22 22 24 24 23
5 4 2 2 6 3 4 6 12 9 5 4 2 6 5 6 2 4 11 10 10 12 11 14 3 2 11 11 12 14 15 13 15 7 14 15 19 22 19 19 22 23 24 25 28
4 3 1 3 4 2 1 13 12 6 4 7 10 6 3 1 3 2 10 7 6 8 10 11 12 9 13 13 13 15 14 16 16 14 16 19 17 21 21 20 20 26 27 29 30
4 3 3 4 4 2 7 13 8 2 1 6 13 6 4 4 9 4 4 9 14 6 7 5 7 9 12 13 11 15 15 14 15 16 17 18 12 16 19 20 22 26 31 33 31
7 6 5 4 2 5 11 11 4 6 4 6 10 9 6 8 14 9 3 6 7 10 12 18 11 8 14 12 8 11 9 13 12 14 17 20 18 16 18 19 18 23 32 31 30
10 9 8 5 2 8 9 2 4 5 6 8 9 8 10 10 9 13 10 9 10 7 9 8 13 15 7 15 15 15 15 13 15 15 16 19 20 16 17 12 12 12 12 26 28
16 14 11 7 6 5 2 1 7 4 9 10 8 5 6 11 7 13 11 6 13 14 10 7 8 3 7 7 11 14 14 15 23 17 18 18 18 15 1 4 7 11 12 19 27
14 15 15 14 9 5 4 7 5 7 8 10 11 7 4 9 11 9 6 9 10 14 9 11 16 14 14 14 14 14 9 11 16 20 18 20 21 9 7 5 2 4 10 19 24
5 7 16 14 7 7 4 6 5 8 6 6 8 4 11 11 10 11 6 10 9 14 14 9 17 15 17 12 17 14 13 12 11 19 23 19 19 11 8 4 5 3 9 16 21
3 2 12 7 10 7 6 5 5 11 12 10 9 11 10 11 12 10 5 7 12 14 17 13 11 16 17 16 17 11 13 16 16 13 17 18 12 9 9 7 6 6 9 16 22
5 1 14 9 6 4 6 4 4 9 12 6 6 8 7 9 7 6 6 8 10 19 15 11 7 16 19 22 26 16 21 22 15 18 17 15 14 7 6 5 3 9 13 18 23
3 4 13 4 3 6 6 6 7 8 10 7 6 6 7 5 5 5 6 12 11 16 11 10 6 15 13 12 8 8 18 27 18 18 19 16 14 6 5 5 3 8 14 21 25
1 1 6 12 7 4 4 5 3 6 6 5 5 3 8 5 2 6 8 8 19 14 8 9 11 14 14 19 15 20 14 12 14 11 19 18 17 9 8 4 3 9 15 21 24
3 4 3 3 7 6 4 2 5 3 3 8 0 7 7 5 10 2 14 15 14 2 11 5 13 15 18 21 21 24 19 16 8 16 11 9 9 13 15 12 6 10 18 22 24
2 3 6 5 2 3 0 2 4 3 3 3 6 9 6 6 10 15 16 12 5 9 7 5 9 16 20 21 17 21 15 10 10 10 17 16 15 17 18 12 5 12 18 23 23
9 8 1 1 2 2 3 2 3 3 2 3 7 9 5 10 15 16 11 9 7 5 9 7 9 12 13 19 18 10 12 1 4 2 3 7 9 14 10 10 4 9 15 20 21
Wind_Direction
316 309 303 299 297 296 300 299 301 301 298 300 300 300 301 298 295 289 273 241 226 204 176 169 176 195 196 212 217 224 239 244 229 230 122 157 166 171 155 145 147 148 140 151 152
315 310 306 303 300 300 295 296 299 300 299 301 300 301 304 304 303 279 257 230 216 199 201 189 188 188 199 213 208 218 225 234 250 247 251 172 186 163 167 156 136 120 127 141 149
322 318 313 311 308 298 293 296 300 299 299 300 303 302 309 315 312 156 162 152 205 200 198 201 199 194 218 213 211 219 244 236 236 257 276 198 198 170 194 188 166 154 148 150 154
327 329 325 313 305 298 297 298 301 300 298 302 305 307 312 312 330 187 217 266 238 190 182 185 193 200 219 213 216 240 230 258 246 268 254 234 190 198 205 85 152 160 155 156 160
333 330 321 310 305 309 304 305 302 302 297 303 308 309 313 277 264 242 265 261 211 179 180 185 197 208 223 220 214 228 232 224 250 259 244 231 195 168 140 123 138 148 155 162 162
331 329 325 317 317 313 309 306 305 299 300 309 307 303 306 264 260 139 144 108 173 177 185 189 209 206 235 233 221 215 232 235 232 231 216 204 178 169 158 147 147 152 157 163 164
329 331 329 323 319 314 309 304 306 304 313 308 310 305 282 267 226 186 116 124 151 182 196 203 206 200 179 189 209 222 212 204 215 208 209 216 197 216 158 160 160 159 159 161 163
327 331 329 323 316 315 310 315 316 312 317 311 313 315 265 265 302 237 202 174 165 177 171 203 194 222 231 149 186 210 229 220 180 202 190 201 219 147 164 167 171 168 167 168 177
322 328 331 327 323 329 330 324 308 308 309 306 306 296 236 176 24 269 186 177 155 172 176 184 190 235 193 212 203 208 226 222 167 199 179 212 227 142 170 177 178 180 179 176 180
315 327 333 333 344 355 346 324 322 324 322 322 293 249 206 157 340 229 173 159 164 159 164 184 201 213 227 222 226 217 229 231 242 173 219 208 232 144 180 191 188 188 186 185 187
309 321 334 352 20 53 26 0 344 13 321 279 310 277 291 287 251 172 173 177 163 199 211 201 221 219 216 226 277 288 257 251 225 224 220 233 221 180 185 204 199 196 196 195 193
310 321 341 33 102 92 39 23 12 320 306 280 302 293 283 242 232 188 170 194 207 231 188 201 232 236 274 233 237 241 245 244 250 273 223 237 236 243 178 212 212 206 202 201 193
317 326 345 114 142 128 44 360 347 333 262 20 12 18 16 155 221 179 183 218 231 237 227 260 300 276 213 216 234 236 246 247 253 196 228 257 251 236 206 219 221 218 213 207 202
337 338 57 125 139 201 339 343 340 338 246 48 39 39 7 269 182 323 214 243 228 265 240 261 273 213 229 241 235 254 212 256 249 237 247 205 253 227 223 213 219 220 216 213 207
16 45 112 138 148 18 322 340 331 302 166 21 28 16 21 345 338 74 208 243 265 220 235 223 202 215 238 244 249 251 260 240 252 252 248 241 254 258 251 224 208 225 223 218 209
61 73 96 125 119 333 336 334 325 228 69 19 25 3 45 40 37 27 49 235 283 282 238 270 289 276 274 285 257 256 229 234 252 254 245 242 254 243 247 221 242 240 227 217 207
74 77 79 87 344 330 331 317 225 32 336 10 357 355 37 14 28 13 4 45 21 304 258 267 258 247 296 282 252 235 246 251 238 232 246 248 242 244 249 272 225 265 293 202 199
81 80 67 37 352 344 67 225 58 33 16 348 344 300 37 14 358 347 348 5 35 351 314 298 272 30 23 325 315 304 251 257 265 260 265 255 245 246 267 34 309 278 258 189 188
67 63 32 22 26 54 284 45 35 6 352 337 309 321 353 11 331 351 34 15 35 19 349 316 285 319 302 311 291 285 251 284 291 280 276 273 267 154 143 119 348 282 202 180 185
38 51 19 32 30 33 62 79 87 29 335 329 355 356 328 341 333 330 322 37 5 13 347 320 301 288 305 289 264 250 288 276 238 262 266 265 264 287 134 79 91 140 177 177 179
10 65 7 17 31 45 55 74 78 39 14 355 343 320 333 344 324 327 15 83 12 352 339 333 295 294 305 278 282 267 248 247 270 273 282 278 282 62 79 67 104 142 168 173 174
27 26 352 22 56 49 59 32 16 15 14 12 3 341 352 340 324 345 2 11 2 344 325 313 289 286 289 299 291 283 286 286 267 263 252 261 277 69 78 46 111 143 156 168 168
68 43 12 31 59 88 104 87 50 20 24 7 10 358 347 327 312 339 348 355 2 340 339 325 295 301 294 280 338 354 352 330 319 298 271 270 261 120 94 80 91 141 154 165 162
108 188 50 54 55 37 114 63 79 43 53 12 14 344 334 315 305 300 316 333 334 332 333 308 283 282 287 294 285 282 286 309 334 301 282 257 276 86 34 41 134 149 157 162 164
47 73 41 40 57 67 76 64 55 47 34 15 337 3 349 307 318 312 327 328 320 23 308 280 280 286 290 298 286 271 265 276 286 310 303 346 332 4 350 326 268 172 164 161 161
73 128 83 94 74 84 50 63 28 51 328 44 342 342 334 310 326 317 327 328 338 329 335 321 289 311 295 291 289 271 249 257 265 264 275 303 322 353 349 348 127 166 169 166 166
77 102 108 116 132 250 55 58 39 329 154 312 329 319 343 348 312 299 294 292 278 315 340 318 316 316 308 338 304 279 22 342 78 5 302 325 343 339 3 2 60 152 169 166 167